Regional Weather Roundup
Issued by NWS

Home | Current Version | Previous Version | Text Only | Print | Product List | Glossary Off
Versions: 1 2 3 4 5 6 7 8 9 10 11 12 13 14 15 16 17 18 19 20 21 22 23 24 25 26 27 28 29 30 31 32 33 34 35 36 37 38 39 40 41 42 43 44 45 46 47 48 49 50

000
ASUS43 KLMK 290210
RWRKY
KENTUCKY REGIONAL WEATHER ROUNDUP
NATIONAL WEATHER SERVICE LOUISVILLE KY
900 PM EST FRI NOV 28 2014

NOTE "FAIR" INDICATES FEW OR NO CLOUDS BELOW 12,000 FEET
WITH NO SIGNIFICANT WEATHER AND/OR OBSTRUCTIONS TO VISIBILITY.

KYZ001>023-026-027-061>063-070>075-290300-
WESTERN AND SOUTH CENTRAL KENTUCKY

CITY           SKY/WX    TMP DP  RH WIND       PRES   REMARKS
PADUCAH        CLEAR     44  26  49 S7        30.06F
HENDERSON      CLEAR     34  25  69 SE3       30.06F
OWENSBORO      PTCLDY    38  27  65 S13       30.09F WCI  30
HOPKINSVILLE   CLEAR     43  24  48 S10       30.10F
BOWLING GREEN  PTCLDY    42  21  43 S10       30.13F
GLASGOW        PTCLDY    39  20  47 S8        30.13F WCI  33
$$

KYZ024-025-028>034-038-045-046-053-290300-
NORTH CENTRAL KENTUCKY

CITY           SKY/WX    TMP DP  RH WIND       PRES   REMARKS
LOUISVILLE/SDF CLOUDY    36  21  54 SE6       30.11F WCI  31
LOUISVILLE/LOU CLOUDY    36  20  52 SE5       30.11F WCI  32
FORT KNOX      CLOUDY    36  21  54 S8        30.09S WCI  30
$$

KYZ035>037-039>044-047>052-055>060-089>105-290300-
NORTHEAST KENTUCKY

CITY           SKY/WX    TMP DP  RH WIND       PRES   REMARKS
LEXINGTON      PTCLDY    33  18  53 SE14      30.12F WCI  23
COVINGTON      MOCLDY    33  17  51 S9        30.11F WCI  25
FRANKFORT      MOCLDY    32  18  56 SE6       30.11F WCI  26
$$

KYZ054-064>069-076>088-106>120-290300-
SOUTHEAST KENTUCKY

CITY           SKY/WX    TMP DP  RH WIND       PRES   REMARKS
JACKSON        PTCLDY    31  16  54 S3        30.17F
LONDON         PTCLDY    34  17  50 CALM      30.18F
SOMERSET       MOCLDY    34  19  55 S5        30.18F WCI  30
MIDDLESBORO    NOT AVBL
MONTICELLO     PTCLDY    38  20  48 S8        30.19F WCI  32
$$




USA.gov is the U.S. government's official web portal to all federal, state and local government web resources and services.